www.pogodaiklimat.ru

Погода и климат >> Архив погоды >> Мексика >> Тустла-Гутьеррес


ПОГОДА в Тустла-Гутьерресе

  • Прогноз погоды в Тустла-Гутьерресе
  • Монитор погоды в Тустла-Гутьерресе

АРХИВ ПОГОДЫ в Тустла-Гутьерресе

Время (UTC), дата Ветер
(напр.,м/с)
 
Видим.   Явления Облачность Т
(С)
Тd
(С)
f
(%)
Тe
(С)
Тes
(С)
Комфортность P
(гПа)
Po
(гПа)
Тmin
(С)
Tmax
(С)
R
(мм)
R24
(мм)
S
(см)
18 12.06 В 1 15 км 6/4 800 м
[Cu med, cong Ac trans]
+30.6 +22.0 60 +39 +52 опасность
солнечного
удара
1011.4 948.1 +23.2 +31.3
21 12.06 В 2 15 км 6/4 900 м
[Cu med, cong Ci]
+33.4 +24.1 58 +45 +53 опасность
перегрева
1008.1 945.5
00 13.06 СЗ 3 15 км 8/5 900 м
[Cb cap Ci ing]
+29.0 +22.1 66 +37 +38 очень
душно
1007.5 945.2 +23.2 +34.4
03 13.06 З 2 15 км 9/6 900 м
[Cb cap Ci ing]
+26.3 +22.0 77 +34 +34 очень
душно
1010.7 948.4
06 13.06 СЗ 1 15 км 10/10 1350 м
[Sc diur, vesp]
+24.0 +21.2 84 +30 +30 очень
душно
1012.7 950.1 +23.2 +34.4
09 13.06 штиль 0 13 км слаб. дождь 10/10 750 м
[]
+22.6 +21.6 94 +30 +30 очень
душно
1011.4 948.4 16
12 13.06 Ю 1 13 км в посл. час дождь 10/5 400 м
[Frnb Ac As Ci]
+22.2 +21.5 96 +29 +29 очень
душно
1011.9 948.5 +21.5 +34.4 4
15 13.06 Ю 1 15 км 8/3 540 м
[Cu med, cong Ac trans]
+26.1 +21.9 78 +34 +39 очень
душно
1013.9 950.2
18 13.06 В 2 15 км 5/3 700 м
[Cu med, cong Ac trans Ci]
+29.7 +21.4 61 +38 +51 опасность
солнечного
удара
1013.0 949.5 +21.5 +30.3
21 13.06 СЗ 2 15 км 9/4 800 м
[Cu med, cong Ac trans Ci fib]
+29.9 +21.6 61 +38 +43 очень
душно
1010.3 947.3
00 14.06 З 2 15 км 10/5 700 м
[Cu Sc Ac As]
+27.3 +21.9 72 +35 +35 очень
душно
1010.1 947.5 +21.5 +31.5
03 14.06 З 2 13 км в посл. час морось 9/5 600 м
[Frnb As trans]
+24.7 +21.0 80 +31 +31 очень
душно
1012.6 949.9 0.3
06 14.06 З 2 15 км {морось} 6/1 600 м
[Cu hum Ac trans]
+24.4 +21.0 81 +31 +31 очень
душно
1013.4 950.4 +21.5 +31.5 0.3
09 14.06 З 1 15 км слаб. морось 9/9 600 м
[St]
+23.7 +20.6 83 +30 +30 очень
душно
1012.3 949.1 0.0
12 14.06 С 1 15 км в посл. час морось 10/10 420 м
[St]
+22.9 +20.6 87 +30 +30 очень
душно
1012.7 949.1 +22.0 +31.5 0.2
15 14.06 ЮЗ 1 15 км 9/6 450 м
[St Ac und]
+24.4 +20.7 80 +30 +33 очень
душно
1014.5 950.8
18 14.06 СЗ 2 15 км 6/4 960 м
[Cu hum Ac trans Cs]
+29.4 +21.7 63 +37 +48 очень
душно
1013.2 949.8 +22.0 +30.6
21 14.06 СЗ 3 15 км 6/4 1170 м
[Cu med, cong Ac trans Cs]
+30.6 +21.2 57 +38 +44 очень
душно
1010.1 947.2
00 15.06 СЗ 3 15 км 8/4 840 м
[St Ac trans Cs]
+27.4 +20.6 66 +34 +34 очень
душно
1010.2 947.6 +22.0 +31.6
03 15.06 ЮЗ 2 15 км 9/9 630 м
[St]
+26.2 +21.2 74 +33 +33 очень
душно
1011.8 949.2
06 15.06 ЮЗ 2 15 км 8/8 420 м
[St]
+24.6 +21.2 81 +31 +31 очень
душно
1013.5 950.6 +22.0 +31.6
09 15.06 ЮВ 1 15 км слаб. морось 8/4 300 м
[St Ac trans]
+24.0 +21.5 86 +31 +31 очень
душно
1012.3 949.2 0.3
12 15.06 СВ 1 15 км 4/3 150 м
[St Ac trans]
+23.2 +22.1 94 +32 +32 очень
душно
1012.6 949.2 +20.8 +31.6
15 15.06 СЗ 1 15 км 6/5 420 м
[Cu hum Cc]
+26.4 +21.7 75 +34 +40 очень
душно
1013.5 950.0
18 15.06 С 1 15 км 4/4 660 м
[Cu med, cong]
+30.5 +21.5 59 +39 +54 опасность
солнечного
удара
1011.8 948.6 +20.8 +31.2
21 15.06 В 1 15 км 4/4 720 м
[Cu med, cong]
+33.7 +21.5 49 +42 +51 опасность
перегрева
1009.3 945.5
00 16.06 СЗ 3 15 км 9/3 720 м
[Cu med, cong Ac As Ci ing]
+28.2 +21.7 68 +36 +36 очень
душно
1008.6 946.4 +20.8 +34.4
03 16.06 ЮЗ 3 15 км 6/0
[Ac trans]
+25.7 +19.9 70 +31 +31 очень
душно
1010.1 947.8
06 16.06 штиль 0 15 км 1/0
[Ac trans]
+25.2 +21.1 78 +32 +32 очень
душно
1010.9 948.4 +34.4
09 16.06 З 1 15 км 1/0
[Ac trans]
+23.5 +20.8 85 +29 +29 душно 1010.2 947.3
12 16.06 Ю 2 15 км 9/0
[Ac As]
+22.9 +20.5 86 +30 +30 очень
душно
1011.0 947.7 +20.1 +34.4
15 16.06 ЮВ 1 15 км 5/3 750 м
[Cu hum Ci fib]
+27.8 +21.8 70 +36 +44 очень
душно
1011.8 948.4
18 16.06 В 1 15 км 8/5 750 м
[Cu hum Cs]
+31.9 +22.8 59 +42 +53 опасность
перегрева
1009.7 946.7 +20.1 +32.5
21 16.06 В 1 15 км 8/4 750 м
[Cu hum Cs]
+34.1 +22.2 50 +43 +51 опасность
перегрева
1006.5 944.2
00 17.06 З 1 15 км 8/3 750 м
[Cu hum Cs]
+30.7 +21.6 58 +39 +39 очень
душно
1005.8 944.0 +20.1 +35.3
03 17.06 З 1 15 км 4/1 750 м
[Cu hum Cs]
+27.8 +22.7 74 +37 +37 очень
душно
1008.5 946.7
06 17.06 Ю 1 15 км 8/3 750 м
[Cu hum Cs]
+26.5 +21.4 74 +34 +34 очень
душно
1009.6 947.5 +21.4 +35.3
09 17.06 ЮЗ 1 15 км 4/1 700 м
[Cu hum Cs]
+25.0 +21.2 79 +32 +32 очень
душно
1008.4 946.0
12 17.06 штиль 0 15 км 3/0
[Cs]
+23.9 +20.9 83 +30 +30 очень
душно
1009.9 947.0 +20.9 +35.3
15 17.06 З 1 15 км 8/3 660 м
[Cu med, cong Ci sp]
+28.7 +21.8 66 +37 +44 очень
душно
1010.8 947.8
18 17.06 Ю 1 15 км 5/3 800 м
[Cu med, cong Ci sp]
+32.1 +22.9 58 +42 +59 опасность
перегрева
1009.3 946.6 +20.9 +32.5
21 17.06 Ю 1 15 км 5/5 930 м
[Cu med, cong]
+35.6 +23.1 49 +46 +54 опасность
перегрева
1005.8 943.7
00 18.06 СЗ 4 15 км слаб. морось {дождь} 9/9 840 м
[Cb calv]
+26.5 +23.0 81 +35 +35 очень
душно
1007.1 945.3 +20.9 +36.5 5
03 18.06 З 2 15 км слаб. морось 9/9 800 м
[Cb calv]
+22.9 +21.2 90 +30 +30 очень
душно
1009.9 947.7 2
06 18.06 З 1 15 км в посл. час дождь 8/0 2000 м
[As trans]
+22.5 +20.5 88 +29 +29 очень
душно
1010.1 947.5 +20.9 +36.5 2
09 18.06 ЮЗ 1 15 км 8/0
[Cs]
+22.3 +20.6 90 +29 +29 очень
душно
1009.9 946.7
12 18.06 З 1 15 км 6/0
[Cs]
+21.9 +20.8 93 +28 +28 душно 1011.0 947.3 +21.5 +36.5
15 18.06 штиль 0 15 км 6/0 2000 м
[Ac trans Ci]
+26.4 +21.1 73 +33 +45 очень
душно
1012.5 948.7
18 18.06 В 1 15 км 5/3 800 м
[Cu med, cong Ci]
+31.8 +21.6 55 +40 +57 опасность
солнечного
удара
1010.1 946.8 +21.5 +32.4
21 18.06 СЗ 2 15 км 5/4 900 м
[Cu med, cong Ci fib]
+34.4 +22.7 51 +44 +52 опасность
перегрева
1007.6 945.1
00 19.06 С 2 15 км в посл. час дождь 6/6 900 м
[Cb cap]
+29.7 +23.5 69 +40 +40 очень
душно
1006.9 944.9 +21.5 +35.2 0.7
03 19.06 З 1 15 км 3/3 1260 м
[Sc diur, vesp]
+27.7 +23.8 79 +38 +38 очень
душно
1008.8 946.8
06 19.06 штиль 0 15 км 1/0
[Ac trans]
+26.8 +24.0 85 +37 +37 очень
душно
1010.3 948.1 +21.5 +34.8
09 19.06 штиль 0 15 км 3/0
[Ac trans]
+25.6 +23.8 90 +35 +35 очень
душно
1009.4 946.9
12 19.06 штиль 0 15 км 3/0
[Ci]
+24.8 +23.0 90 +33 +33 очень
душно
1010.0 947.1 +24.0 +35.2
15 19.06 ЮЗ 1 15 км 3/1 660 м
[Cu hum Ci]
+29.4 +22.7 67 +39 +50 очень
душно
1011.3 948.3

 

Местоположение метеостанции Тустла-Гутьеррес (Мексика): широта 16.75 долгота -93.13 высота над уровнем моря 576 м.

В архиве по умолчанию представлена погода в Тустла-Гутьерресе за последнюю неделю. Архивные данные за месяц целиком и за предыдущие месяцы, начиная с января 2011 года, Вы можете получить, выбрав интересующий диапазон дат из раскрывающегося списка и нажав кнопку "Ввод!".


*Определитесь, кто Вы:
робот инопланетянин человек

Внимание! Время в таблицах - всемирное. Для получения местного времени необходимо прибавить поправку, которая равна -6 ч.

Смотрите также архив погоды в соседних городах и на ближайших метеорологических станциях:

Погода в Сан-Кристобаль-де-лас-Касасе (Мексика) (53 км)
Погода в Арриаге (Мексика) (100 км)
Погода в Комитане (Мексика) (120 км)
Погода в Вильяэрмосе (Мексика) (138 км)
Погода в Коацакоалькосе (Мексика) (205 км)
Погода в Тапачуле (Мексика) (224 км)
Погода в Салина-Крусе (Мексика) (228 км)
Погода в Уэуэтенанго (Гватемала) (239 км)
Погода во Флоресе (Гватемала) (347 км)
Погода в Гватемале (Гватемала) (370 км)

Пояснения к столбцам:

Ветер - указаны скорость ветра в м/с - средняя за 10 мин, порывы в срок и между сроками (в фигурных скобках) и направление, откуда дует ветер: С - северный, СВ - северо-восточный, В - восточный, ЮВ - юго-восточный, Ю - южный, ЮЗ - юго-западный, З - западный, СЗ - северо-западный.
Видимость - горизонтальная дальность видимости в метрах или километрах. При видимости от 1 до 10 км при отсутствии осадков обычно наблюдается дымка, при ухудшении видимости до 1 км и менее - туман. В сухую погоду видимость может ухудшаться дымом, пылью или мглою.
Явления - указаны атмосферные явления, наблюдавшиеся в срок или в последний час перед сроком; фигурными скобками обозначены явления, наблюдавшиеся между сроками (за 1-3 часа до срока); квадратными скобками обозначены град или гололедные отложения с указанием их диаметра в мм.
Облачность - указаны через наклонную черту общая и нижняя облачность в баллах и высота нижней границы облаков в метрах; квадратными скобками обозначены формы облаков: Ci - перистые, Cs - перисто-слоистые, Cc - перисто-кучевые, Ac - высококучевые, As - высокослоистые, Sc - слоисто-кучевые, Ns - слоисто-дождевые, Cu - кучевые, Cb - кучево-дождевые. Подробнее классификацию облаков см. в Атласе облаков (PDF).
T - Температура воздуха - температура, измеренная на высоте 2 м над землей.
Td - Температура точки росы - температура, при понижении до которой содержащийся в воздухе водяной пар достигнет насыщения.
f - Относительная влажность воздуха - влажноcть воздуха, измеренная на высоте 2 м над землей.
Te - Эффективная температура - температура, которую ощущает одетый по сезону человек в тени. Характеристика душности погоды. При расчете учитывается влияние влажности воздуха и скорости ветра на теплоощущения человека.
Tes - Эффективная температура на солнце - температура, которую ощущает человек, с поправкой на солнечный нагрев. Характеристика знойности погоды. Зависит от высоты солнца над горизонтом, облачности и скорости ветра. Ночью, в пасмурную погоду, а также при ветре 12 м/с и более поправка равна нулю.
P - Атмосферное давление - приведенное к уровню моря атмосферное давление.
Po - Атмосферное давление - измеренное на уровне метеостанции атмосферное давление.
Tmin - Минимальная температура - минимум температуры воздуха на высоте 2 м над землей.
Tmax - Максимальная температура - максимум температуры воздуха на высоте 2 м над землей.
R - Количество осадков - Количество выпавших осадков за период времени, мм. При наведении курсора мыши на число - период времени, за который выпало указанное количество осадков.
R24 - Количество осадков - Количество выпавших осадков за 24 часа, мм.
S - Снежный покров - Высота снежного покрова, см. При наведении курсора мыши на число - состояние снежного покрова и степень покрытия местности в баллах.